Regional Weather Roundup
Issued by NWS Upton, NY

Home | Current Version | Previous Version | Text Only | Print | Product List | Glossary On
Versions: 1 2 3 4 5 6 7 8 9 10 11 12 13 14 15 16 17 18 19 20 21 22 23 24 25 26 27 28 29 30 31 32 33 34 35 36 37 38 39 40 41 42 43 44 45 46 47 48 49 50
000
ASUS41 KOKX 022118
RWROKX

REGIONAL WEATHER ROUNDUP
NATIONAL WEATHER SERVICE NEW YORK NY
500 PM EDT THU JUL 02 2015

NOTE: "FAIR" INDICATES FEW OR NO CLOUDS BELOW 12,000 FEET WITH NO
SIGNIFICANT WEATHER AND/OR OBSTRUCTIONS TO VISIBILITY.

NYZ071-072-176-178-NJZ106-104-022200-
NEW YORK CITY METRO AREA


CITY           SKY/WX    TMP DP  RH WIND       PRES   REMARKS
CENTRAL PARK   CLOUDY    77  60  55 CALM      29.89F
LAGUARDIA APRT CLOUDY    77  56  48 S5        29.86F
KENNEDY INTL   CLOUDY    74  59  59 SE7       29.88F
NEWARK/LIBERTY CLOUDY    77  58  51 S7        29.86F
BRNX BOT. GARD   N/A    N/A N/A N/A SE2       29.87F
TETERBORO      CLOUDY    78  57  48 S3        29.85F
$$

NYZ177-179-078>081-022200-
LONG ISLAND NEW YORK

CITY           SKY/WX    TMP DP  RH WIND       PRES   REMARKS
FARMINGDALE    CLOUDY    73  59  61 SE3       29.88F
ISLIP          CLOUDY    72  60  66 SE6       29.87S
SHIRLEY        CLOUDY    71  59  65 SW3       29.89F
WESTHAMPTON    CLOUDY    71  60  68 SW5       29.90F
MONTAUK POINT    N/A     74  61  63 VRB5      29.91S
$$

NYZ052-065-067-022200-
HUDSON VALLEY

CITY           SKY/WX    TMP DP  RH WIND       PRES   REMARKS
WHITE PLAINS   CLOUDY    77  58  51 NE5       29.87F
NEWBURGH       PTSUNNY   75  59  57 W8        29.89
MONTGOMERY     PTSUNNY   77  58  51 CALM      29.87F
POUGHKEEPSIE   CLOUDY    77  56  48 CALM      29.87F
ALBANY         MOSUNNY   76  51  41 NW12      29.89F
$$

NJZ001-105-106-008-010-013-015-019>022-104-022200-
NEW JERSEY

CITY           SKY/WX    TMP DP  RH WIND       PRES   REMARKS
NEWARK/LIBERTY CLOUDY    77  58  51 S7        29.86F
TETERBORO      CLOUDY    78  57  48 S3        29.85F
CALDWELL       CLOUDY    79  57  46 VRB3      29.87F
MORRISTOWN     CLOUDY    79  63  57 E5        29.87F
SOMERVILLE     CLOUDY    80  60  50 CALM      29.85F
SUSSEX         PTSUNNY   75  58  55 CALM      29.88F
ANDOVER          N/A     75  61  61 CALM      29.89F
TRENTON        CLOUDY    75  60  59 SE5       29.87F
MILLVILLE      CLOUDY    69  66  90 E3        29.88F FOG
ATLANTIC CITY  LGT RAIN  68  66  93 N3        29.89S FOG
WRIGHTSTOWN    CLOUDY    72  64  74 E2        29.86S
TOMS RIVER     CLOUDY    68  64  88 CALM      29.89S
BELMAR         PTSUNNY   70  61  73 SE5       29.88F
$$

PAZ047>061-062-071-022200-
EASTERN PENNSYLVANIA

CITY           SKY/WX    TMP DP  RH WIND       PRES   REMARKS
PHILADELPHIA   CLOUDY    75  62  64 S3        29.88F
ALLENTOWN      CLOUDY    77  60  55 N3        29.88S
SCRANTON       CLOUDY    75  56  51 N6        29.91S
$$

CTZ002-004>006-009-010-012-RIZ004-006-007-MAZ004-011-015-022200-
SOUTHERN NEW ENGLAND
 IN CT

CITY           SKY/WX    TMP DP  RH WIND       PRES   REMARKS
BRADLEY INTL   CLOUDY    76  56  49 SW6       29.87F
HARTFORD       CLOUDY    78  57  48 SW12      29.87F
DANBURY        PTSUNNY   75  56  51 S3        29.89F
WTRBRY/OXFORD  MOSUNNY   73  57  56 CALM      29.92F
BRIDGEPORT     CLOUDY    77  57  50 CALM      29.88F
MERIDEN        CLOUDY    77  58  51 W5        29.88F
NEW HAVEN      CLOUDY    75  57  53 W3        29.88F
CHESTER        FAIR      73  63  68 SW3       29.90F
GROTON         CLOUDY    72  61  68 SW7       29.88S
WILLIMANTIC    CLOUDY    78  58  49 NW6       29.89S

 IN RI

CITY           SKY/WX    TMP DP  RH WIND       PRES   REMARKS
PROVIDENCE     CLOUDY    78  59  51 W9        29.88R
BLOCK ISLAND   CLOUDY    73  55  53 SW7       29.90S
WESTERLY       CLOUDY    74  57  55 W6        29.89F

 IN MA

CITY           SKY/WX    TMP DP  RH WIND       PRES   REMARKS
BOSTON         CLOUDY    77  57  50 SW12      29.86S
WORCESTER      CLOUDY    73  55  53 W9        29.91S
WESTFIELD      CLOUDY    78  54  43 VRB3      29.88S
PROVINCETOWN   CLOUDY    73  16  11 SW12      29.87S
NANTUCKET      CLOUDY    68  60  75 SE5       29.90R
$$

ANZ330-335-338-340-345-350-353-355-022200-
COASTAL MARINE OBSERVATIONS


STATION/POSITION TIME  SKY/WX   TEMP    WIND        PRES    VSBY  WAVE
                                AIR SEA DIR/SP/G                  HT/PER
                 (UTC)          (F)     (DEG/KT/KT) (MB)    (MI)  (FT/S)
NY HARB ENTRANCE 2050            67 70  140/  8/ 10 1011.2          3/ 9
4S FIRE IS       2003               69                N/A           4/ 7
20S FIRE ISLAND  2050            65 68   90/  6/  6 1011.7          3/ 8
GREAT SOUTH BAY  2000            70 75  210/ 12/ 14   N/A
23SW MTP         2050            67 67  190/ 10/ 12 1012.2          4/ 9
HUDSON CANYON    NOT AVBL
KINGS POINT      2000            75 66  200/  5/  6 1011.3
CENTRAL LI SOUND NOT AVBL
EASTERN LI SOUND 2000            69 64  270/  4/  4   N/A
ROBBINS REEF     2000            71     160/ 13/ 14 1010.7
$$


>>>>>>>>>>>>>>>>>>>>>>>>>>>> KEY <<<<<<<<<<<<<<<<<<<<<<<<<<<
>                                                          <
>     SKY/WX - SKY CONDITION/PRESENT WEATHER               <
>     TMP    - TEMPERATURE IN FAHRENHEIT                   <
>     DP     - DEWPOINT IN FAHRENHEIT                      <
>     RH     - RELATIVE HUMIDITY IN PERCENT                <
>     WIND   - DIRECTION AND SPEED IN MPH                  <
>     PRES   - MEAN SEA LEVEL PRESSURE IN INCHES OF HG     <
>     WCI    - WIND CHILL INDEX                            <
>     VSB    - VISIBILITY IN MILES                         <
>     HX     - HEAT INDEX                                  <
>     TC     - TEMPERATURE IN CELSIUS                      <
>     VRB    - VARIABLE WIND DIRECTION                     <
>                                                          <
>>>>>>>>>>>>>>>>>>>>>>>>>>>> KEY <<<<<<<<<<<<<<<<<<<<<<<<<<<





USA.gov is the U.S. government's official web portal to all federal, state and local government web resources and services.